RH
71 88 40 23 18 18 22 23 14 21 23 27 100 69 83 54 60 88 100 65 78 65 66 66 54 43 42 38 38 36 36 30 21 24 24 24 24 25 23 19 19 17 15 13 12 11 12 16 29
90 68 44 26 17 17 22 17 14 21 28 59 30 100 100 65 90 72 100 95 97 80 78 64 56 55 58 51 51 44 43 40 24 27 28 29 28 31 28 20 18 11 9 8 10 14 18 26 36
100 88 62 36 17 17 21 20 13 18 28 22 28 34 75 100 100 67 58 100 100 100 98 80 56 50 71 72 57 48 47 46 34 24 24 23 24 25 24 19 14 11 10 9 11 43 33 60 45
99 82 57 45 18 16 17 25 17 21 20 24 29 32 42 100 100 100 82 57 100 100 100 88 71 90 96 95 68 49 56 51 41 36 34 27 24 25 18 18 12 11 10 9 14 26 48 69 56
100 92 56 50 19 17 14 22 17 23 22 22 28 29 88 100 100 100 100 78 49 98 100 100 87 100 100 100 85 54 57 61 52 40 34 31 28 21 20 15 12 11 10 11 23 44 43 80 65
58 44 67 76 22 19 16 16 28 19 25 26 23 30 33 100 66 79 100 100 89 60 59 89 88 91 92 97 92 61 56 63 56 46 32 29 23 25 20 12 10 11 13 14 22 50 41 75 66
80 100 100 61 29 23 17 21 27 25 25 23 36 26 22 77 60 47 42 92 99 94 58 64 49 40 51 42 41 54 75 73 60 45 32 33 27 28 15 13 12 11 14 17 21 40 49 60 76
100 96 62 36 34 28 20 25 24 32 28 32 39 37 32 54 48 31 46 86 99 100 100 60 54 54 43 33 39 66 80 68 60 42 33 34 32 26 14 14 13 13 16 22 59 58 74 87 73
100 96 78 50 42 39 25 29 23 36 36 30 31 38 66 68 54 37 40 65 97 100 89 64 55 52 36 53 50 73 80 81 54 54 47 40 36 22 17 14 14 16 18 23 65 98 94 78 99
100 100 87 66 53 52 40 33 32 34 45 32 35 34 51 64 58 42 44 46 65 72 100 78 61 39 40 66 85 93 80 67 75 76 57 44 32 22 19 17 17 18 18 19 32 35 61 85 98
97 100 88 76 56 59 47 44 40 39 41 38 33 34 41 42 72 75 98 87 88 94 94 73 51 54 74 80 80 92 100 100 73 65 48 40 32 24 21 20 21 23 25 26 25 34 57 38 42
57 77 76 76 61 60 62 60 51 40 46 40 38 39 36 40 39 92 94 66 94 84 72 62 89 88 78 74 98 100 100 94 76 60 51 39 32 24 22 23 22 24 24 27 27 28 37 57 58
46 63 61 61 72 80 69 72 66 66 57 41 45 46 34 35 42 42 53 100 84 99 100 100 100 93 90 100 100 100 99 98 76 64 54 47 34 27 25 24 26 29 27 26 28 27 29 25 27
34 45 54 50 48 47 51 75 81 96 84 59 61 49 28 37 48 43 46 44 85 82 77 84 94 94 100 100 100 99 91 84 70 66 54 51 40 33 32 35 35 35 33 30 27 26 25 21 21
48 65 64 60 52 53 46 56 80 97 84 81 89 67 55 51 52 55 51 53 44 52 100 100 83 78 68 78 100 84 62 60 63 66 66 60 55 54 54 53 50 46 43 40 41 38 36 36 37
34 41 46 57 60 56 48 70 73 72 76 98 99 89 98 99 75 60 55 49 60 45 44 55 91 100 100 74 86 85 88 80 76 74 84 86 80 74 68 67 63 54 52 53 52 54 53 48 48
35 46 48 46 59 65 54 51 59 71 65 63 76 56 61 82 100 81 75 54 31 61 36 68 65 88 100 100 97 87 96 83 85 99 100 100 100 100 100 92 85 81 64 53 54 48 52 53 51
54 57 66 70 66 70 72 75 67 63 53 59 81 85 74 75 75 86 99 86 62 40 46 69 88 67 68 100 100 100 100 95 97 100 100 100 100 100 100 100 100 99 82 67 66 74 79 76 77
100 92 87 100 98 80 87 92 96 88 68 93 82 87 84 93 100 95 89 100 100 88 50 57 69 90 84 67 82 100 100 97 100 100 100 100 100 100 100 100 100 100 100 100 100 100 100 99 100
87 100 100 100 100 100 96 74 100 100 100 100 100 100 100 100 96 97 100 100 85 99 73 90 100 97 89 84 91 82 72 72 89 93 95 96 96 98 96 93 100 100 100 100 100 100 100 100 100
100 100 100 100 100 100 100 88 100 100 100 100 100 95 100 100 90 100 100 94 95 90 100 97 100 100 100 100 100 96 91 96 89 73 59 55 60 60 71 93 100 97 100 100 100 100 91 90 84
62 100 100 88 100 100 100 100 100 100 100 100 100 100 76 88 100 100 100 100 84 78 90 100 100 100 100 100 100 100 100 100 100 100 100 98 89 87 92 94 99 100 100 100 100 97 84 76 72
100 96 80 94 100 59 84 100 89 100 100 100 100 100 100 96 98 100 100 100 100 93 77 100 100 100 100 100 100 98 80 93 99 100 100 100 100 100 100 100 100 100 100 100 90 85 79 78 78
96 100 100 100 84 80 43 65 98 68 74 76 79 95 92 54 90 100 100 100 100 100 88 94 100 98 94 100 100 100 100 93 79 85 97 90 88 100 100 100 100 100 100 100 99 100 97 80 88
62 89 74 98 100 100 100 90 49 77 59 55 54 66 88 86 66 93 100 100 100 100 100 99 100 100 100 100 100 100 100 100 100 91 91 89 99 98 100 100 100 100 99 96 93 100 96 89 67
86 51 77 95 59 61 72 69 60 58 54 36 69 50 46 65 67 69 82 96 100 100 100 100 100 100 100 100 100 100 100 100 100 100 100 100 93 90 93 100 100 97 100 100 100 91 95 77 98
68 58 82 90 54 44 44 48 50 100 100 100 100 99 61 46 65 50 37 44 69 99 100 100 100 100 100 100 100 100 100 100 100 100 100 100 100 100 100 100 100 100 100 100 100 100 100 100 100
100 71 72 91 100 100 100 100 100 100 100 100 100 100 100 98 94 69 62 59 36 45 73 71 94 100 100 100 100 100 100 100 100 100 100 100 100 100 100 100 100 100 98 100 100 100 100 100 100
100 100 100 100 100 100 100 100 100 100 100 100 100 100 100 100 67 37 35 22 19 25 31 48 51 57 73 94 98 100 100 100 100 100 100 100 100 100 100 100 96 100 100 89 100 100 100 100 100
83 100 100 100 100 100 88 100 99 100 100 99 100 90 69 43 52 28 14 12 18 22 24 22 23 31 46 52 80 87 100 100 100 100 100 100 82 84 100 100 99 99 96 89 94 88 100 100 100
Wind_Speed
43 36 32 33 33 35 35 36 39 34 34 35 42 43 45 42 40 41 43 41 42 41 38 39 38 36 33 32 33 34 33 32 29 27 28 29 31 34 35 36 37 41 42 42 45 47 44 41 37
34 34 35 35 34 37 38 37 35 33 33 43 40 43 46 41 45 42 41 40 44 45 44 44 44 42 39 38 38 37 35 34 34 32 32 34 35 35 38 36 39 35 36 41 46 45 38 36 36
34 34 36 37 35 38 40 37 38 30 37 42 42 45 42 40 48 44 44 36 37 41 45 44 45 42 43 44 42 39 38 35 36 41 41 41 41 39 35 36 35 41 41 39 40 35 33 33 34
42 33 35 38 34 37 39 41 36 34 36 42 45 46 42 45 44 46 50 42 39 40 42 44 44 45 45 47 45 40 39 39 38 38 40 42 41 38 34 35 34 42 43 42 36 36 30 30 30
45 37 38 38 35 36 37 41 33 37 38 40 45 46 37 43 47 46 50 47 42 47 44 44 46 46 46 46 45 43 41 40 41 40 39 41 37 32 34 34 38 42 42 36 32 28 28 27 29
47 42 43 39 36 35 37 41 38 40 39 36 40 49 41 44 47 49 51 49 45 48 50 52 52 52 50 52 50 45 43 42 42 41 38 36 32 31 31 32 29 32 31 31 28 27 26 25 27
43 49 39 34 37 37 35 40 41 37 39 35 35 43 40 47 49 50 50 48 45 47 46 45 46 47 50 53 51 46 40 42 40 40 36 33 31 33 30 33 33 31 27 26 23 22 23 25 26
50 33 33 38 40 37 34 40 43 39 37 36 34 32 27 37 50 45 46 45 42 42 45 48 48 49 49 48 45 41 41 42 39 38 36 33 32 31 30 31 30 26 24 22 16 16 19 21 23
39 36 39 40 39 38 34 41 39 42 38 38 35 34 23 31 34 37 44 45 47 43 51 50 49 50 43 40 41 39 38 40 39 37 37 35 34 31 33 32 28 25 23 22 22 22 21 21 23
36 37 39 38 38 41 38 39 42 41 42 38 35 36 32 31 30 32 39 44 48 50 49 51 49 44 39 41 38 38 40 41 42 41 37 35 33 30 31 35 31 27 25 23 22 23 22 23 25
39 41 38 40 40 43 41 44 42 42 44 41 35 30 36 36 27 28 28 33 39 47 51 49 40 38 37 39 38 41 45 44 40 36 34 36 33 33 32 32 30 30 31 28 23 24 27 25 28
37 38 40 43 43 44 41 42 45 42 48 40 36 38 33 36 33 32 33 34 38 37 31 33 32 36 36 38 40 44 46 47 43 37 34 38 37 37 36 36 36 35 34 32 33 30 30 31 30
36 38 41 43 41 46 47 44 43 45 50 40 42 42 38 34 38 36 36 36 36 37 45 46 46 43 40 44 43 48 51 43 41 40 38 39 39 39 41 43 42 43 41 39 37 37 35 35 36
28 31 37 40 44 46 43 42 42 47 47 43 45 45 41 43 47 43 41 40 38 38 42 43 42 40 39 45 48 48 45 45 42 42 41 42 42 43 46 46 46 47 45 43 42 43 43 43 41
42 42 41 45 37 37 40 38 42 44 44 43 48 45 46 47 49 51 48 46 42 40 40 45 44 45 43 40 43 43 42 44 45 43 43 45 47 47 49 50 51 49 47 49 47 45 46 46 46
50 51 50 48 42 41 40 38 46 46 42 45 47 47 48 51 51 54 54 50 51 44 39 49 48 44 49 46 46 48 49 49 49 46 47 49 53 52 54 53 52 51 52 51 49 49 47 46 45
57 56 58 57 54 49 43 43 45 48 44 46 49 52 51 51 54 56 57 56 49 53 42 49 52 51 48 48 53 53 54 53 50 51 53 55 58 56 56 56 55 53 51 51 52 52 51 53 57
61 62 59 61 63 63 58 46 45 48 51 45 48 52 54 53 57 59 59 58 60 55 51 52 57 54 55 52 54 53 57 55 57 57 57 55 56 54 53 54 54 55 55 55 55 58 60 59 59
61 66 66 68 68 67 65 66 60 55 54 57 58 53 50 55 61 63 58 62 61 62 54 56 58 60 58 58 60 58 59 56 56 56 60 57 54 55 53 57 57 58 57 57 59 60 61 61 60
71 70 69 69 75 75 73 62 64 65 66 65 65 65 63 59 59 58 66 67 63 66 61 61 64 65 64 61 64 64 67 64 66 66 67 63 61 62 62 64 61 60 60 60 60 61 63 65 66
72 76 77 74 78 73 77 65 65 66 71 72 71 69 72 68 62 65 69 68 67 66 72 66 68 68 69 69 68 66 68 69 70 72 72 71 69 67 66 65 66 67 65 68 71 72 71 72 73
65 79 76 77 80 78 79 66 59 69 71 72 77 75 75 70 69 73 76 78 76 72 72 75 71 72 71 71 70 69 71 72 70 71 72 73 73 72 71 70 70 67 68 71 75 76 76 77 80
79 87 85 85 86 92 69 94 65 70 77 82 89 92 77 70 72 75 80 85 83 82 78 79 77 79 78 79 78 77 75 73 72 74 74 74 72 72 72 70 70 71 74 76 79 80 81 81 85
83 84 91 95 92 102 78 92 102 69 91 87 93 98 96 87 80 83 81 83 90 89 87 87 84 83 85 85 87 85 84 84 81 80 80 79 77 77 77 75 75 78 80 83 84 86 90 89 91
85 87 89 90 97 94 90 100 96 93 90 99 94 98 101 98 95 94 93 93 97 91 87 90 94 90 86 88 92 89 87 88 88 88 91 88 85 83 81 82 83 86 89 90 91 93 96 96 98
99 94 99 103 95 99 97 96 92 102 106 103 98 99 101 104 101 103 103 105 106 106 98 91 96 100 98 98 98 97 94 95 90 88 93 96 94 91 91 90 91 92 95 97 99 99 103 103 104
108 99 101 108 111 114 102 99 103 102 118 107 110 110 111 107 111 110 108 115 118 117 115 107 101 105 103 106 103 106 102 101 99 96 98 100 97 94 93 94 93 95 97 101 102 102 102 105 105
116 107 109 109 115 114 110 110 114 111 111 117 119 118 123 131 135 133 135 136 122 130 125 120 118 113 114 110 109 111 108 108 105 102 102 106 107 107 101 99 96 101 105 105 106 106 108 109 107
121 122 122 112 117 123 125 123 128 128 129 129 131 138 144 152 145 124 125 122 120 127 130 134 127 122 120 121 122 122 118 114 114 110 110 111 111 111 110 110 109 110 110 115 114 117 113 116 114
122 125 125 126 122 137 139 143 138 138 140 143 140 145 145 135 138 127 120 108 109 114 120 124 131 136 136 131 127 126 127 124 124 122 120 117 119 121 121 117 115 118 122 120 118 120 118 116 116
Wind_Direction
296 282 283 287 292 294 289 282 282 279 276 273 262 263 265 264 269 266 264 268 266 269 274 272 274 280 274 284 284 280 282 280 265 266 270 272 276 278 279 280 283 283 280 278 280 278 276 273 270
287 290 287 288 290 294 290 288 289 282 273 262 260 259 264 268 272 263 262 268 271 270 269 270 272 277 277 280 284 278 276 275 263 267 266 270 275 279 278 277 281 288 286 281 276 276 271 265 264
284 293 287 287 287 293 289 293 297 284 269 265 259 257 256 263 267 270 262 259 267 271 272 272 273 275 274 277 280 280 271 271 272 269 269 270 273 277 277 281 284 285 287 288 280 272 264 259 262
287 287 286 290 289 291 291 295 297 285 275 268 262 260 257 257 264 269 270 261 260 270 266 268 271 270 269 274 276 278 276 271 272 273 271 268 270 275 280 284 282 285 289 284 278 266 257 257 257
288 283 284 284 282 287 291 296 291 295 289 273 263 259 257 265 260 266 270 267 258 262 264 267 269 273 274 272 273 278 277 275 275 278 277 272 269 271 281 283 280 289 289 284 273 260 256 255 257
281 283 282 275 277 287 289 292 299 293 293 285 270 259 248 261 256 255 260 264 264 264 262 264 266 268 274 275 275 275 276 276 276 278 280 274 268 284 281 277 290 303 293 286 275 262 255 256 255
285 289 277 265 282 279 281 289 295 292 297 296 281 269 259 254 258 256 255 260 264 272 271 273 270 272 276 273 275 275 273 276 277 278 280 275 269 284 277 278 287 304 301 287 276 257 266 259 260
287 273 264 269 273 275 280 283 289 296 293 294 295 286 284 262 259 262 257 259 258 269 272 270 273 274 276 272 273 273 270 274 277 279 279 278 278 281 277 283 291 299 307 287 270 275 283 281 270
275 267 266 268 273 274 274 283 283 295 292 294 299 298 292 280 275 261 255 255 254 260 265 271 275 276 276 273 271 271 275 277 277 281 282 281 282 278 277 282 286 296 304 292 262 267 271 273 277
271 264 268 270 275 277 272 274 280 287 291 293 296 296 294 291 287 266 263 262 259 259 266 272 277 276 271 266 267 270 273 274 278 281 280 279 274 275 282 284 288 294 298 298 282 269 271 278 278
279 273 272 271 273 277 275 277 278 281 287 290 292 288 296 289 291 286 283 280 276 270 268 270 267 264 262 265 267 270 272 278 278 278 275 275 275 275 280 287 291 293 296 293 286 276 270 272 271
275 277 277 278 275 274 277 277 280 279 282 289 293 290 284 293 289 288 288 277 272 273 284 274 268 267 267 265 268 270 273 279 275 274 274 273 272 275 280 284 286 290 286 285 285 282 280 276 275
284 284 283 283 281 278 279 277 275 281 280 286 285 287 289 285 286 285 286 285 284 279 285 281 277 272 267 268 268 269 272 270 272 276 274 273 276 279 282 286 289 290 285 285 284 279 275 277 278
301 300 299 293 284 282 286 288 277 275 277 282 281 282 287 287 287 287 284 283 282 282 278 277 277 277 273 263 263 267 271 272 274 273 272 273 275 278 283 286 287 289 290 288 287 286 279 277 279
299 294 302 303 299 301 292 293 290 283 278 276 278 278 282 284 285 287 286 283 278 277 285 283 283 282 280 276 267 269 271 275 275 277 277 276 277 279 281 283 283 284 285 286 284 282 283 284 283
288 291 287 288 299 302 299 299 290 290 289 284 285 283 282 285 283 283 284 282 285 279 278 287 286 283 273 272 268 268 270 274 276 277 279 279 277 275 275 276 277 280 280 282 280 279 277 278 282
281 287 289 288 288 294 299 296 297 290 289 287 285 283 281 281 283 282 282 283 279 283 279 281 280 282 282 275 266 265 265 270 271 272 275 277 277 276 273 273 274 274 274 275 276 279 281 281 285
278 280 283 286 285 286 289 292 294 297 294 292 284 282 282 283 284 284 284 282 280 276 280 278 277 275 276 279 277 278 275 274 271 272 273 272 273 272 273 277 275 269 270 273 276 277 280 283 284
281 279 280 283 282 283 282 284 291 291 291 291 287 279 282 284 283 281 280 280 280 277 274 276 276 275 273 269 270 272 275 276 274 274 274 273 272 274 277 280 281 279 280 278 279 279 279 280 279
281 279 282 283 281 280 280 281 285 287 286 284 287 284 280 279 278 282 280 276 275 277 275 272 272 274 273 272 271 270 269 268 268 269 270 271 273 273 275 278 278 278 280 277 277 277 278 279 280
281 282 281 283 285 287 279 276 277 277 281 283 279 277 277 277 278 277 274 274 273 273 276 273 273 272 272 273 273 273 273 272 272 272 273 273 275 275 274 272 272 276 275 275 278 279 281 282 283
282 285 286 282 282 279 279 280 268 272 277 277 276 274 271 275 275 274 271 269 270 272 274 273 270 272 272 273 272 273 274 274 273 275 275 274 273 273 271 270 272 273 274 275 277 279 279 282 283
275 275 282 286 283 282 277 284 256 279 271 276 280 271 266 269 270 270 267 267 266 267 268 269 268 267 268 271 271 272 274 273 273 273 273 273 273 272 271 272 272 272 272 273 275 278 281 282 284
278 280 276 278 283 285 287 283 289 276 283 275 275 275 271 263 259 260 262 266 265 265 267 268 265 264 264 266 267 267 270 272 273 273 273 274 273 272 271 271 273 275 274 276 278 280 281 283 285
282 281 280 280 280 283 283 283 287 287 277 283 278 273 272 266 259 257 257 258 264 263 261 261 264 263 263 264 266 266 265 267 268 270 271 272 272 272 272 273 276 277 279 280 281 282 283 284 286
287 280 282 281 284 282 281 283 285 287 287 282 281 277 275 276 264 257 256 257 258 261 258 256 259 261 264 264 265 265 264 263 264 265 268 270 271 272 273 274 275 278 279 280 280 283 284 286 286
290 281 285 286 289 285 284 286 285 284 285 285 283 277 278 278 275 271 262 260 256 255 255 255 256 257 258 259 261 264 263 263 262 263 266 268 269 271 272 273 277 278 278 280 281 283 284 284 286
290 286 290 290 292 291 289 288 288 286 283 281 278 276 275 277 278 279 277 274 263 257 254 253 252 254 255 255 257 258 260 262 262 264 266 267 269 269 269 270 272 274 277 278 280 280 281 282 286
290 288 288 287 286 287 285 284 286 287 282 279 278 277 274 274 277 275 270 269 269 259 256 254 254 254 254 254 255 255 257 259 261 261 261 263 264 266 266 268 268 271 275 276 278 278 280 282 283
284 285 282 284 282 284 284 281 283 285 285 279 278 280 278 278 278 277 276 273 269 263 260 255 255 255 254 255 254 256 258 258 260 261 262 264 264 265 266 266 267 269 272 274 277 279 278 279 281